Home > Weather > Kuujjuaq > Past weeks

Flag for Canada Past Weather in Kuujjuaq, Quebec, Canada — Yesterday and Last 2 Weeks

Now
59 °F

Passing clouds.


Feels Like: 57 °F
Forecast: 52 / 64 °F
Wind: 12 mph from Southeast

Location: Kuujjuaq

Current Time: Jul 26, 2016 at 11:59:42 PM

Latest Report: Jul 26, 2016 at 11:00 PM


Visibility: 15 mi

Pressure: 29.94 "Hg

Humidity: 59%

Dew Point: 45 °F

Location of KuujjuaqLocation

Past Weather in Kuujjuaq — Graph

°F

Kuujjuaq Temperature Yesterday

Maximum temperature yesterday: 64 °F (at 3:00 PM)
Minimum temperature yesterday: 43 °F (at 1:00 AM)
Average temperature yesterday: 52 °F

High & Low Weather Summary for the Past Weeks

 TemperatureHumidityPressure
High81 °F (Jul 17, 1:00 PM)100% (Jul 12, 3:52 AM)30.11 "Hg (Jul 12, 3:52 AM)
Low41 °F (Jul 12, 3:00 AM)34% (Jul 17, 1:00 PM)29.18 "Hg (Jul 15, 1:00 AM)
Average57 °F78%29.68 "Hg
* Reported Jul 11 10:00 PM — Jul 26 10:00 PM, Kuujjuaq, Weather by CustomWeather, © 2016

Note: Actual official high and low records may vary slightly from our data, if they occured in-between our weather recording intervals... More about our weather records

Advertising

Kuujjuaq Weather History for the Previous 24 Hours

Scroll right to see more
 ConditionsComfort  
Time TempWeatherWind HumidityBarometerVisibility
10:00 PM
Tue, Jul 26
61 °FBroken clouds.16 mph55%29.93 "Hg15 mi
9:00 PM63 °FBroken clouds.13 mph52%29.93 "Hg15 mi
8:00 PM64 °FPartly sunny.12 mph52%29.92 "Hg15 mi
7:00 PM66 °FPartly sunny.16 mph49%29.91 "Hg15 mi
6:00 PM66 °FBroken clouds.20 mph49%29.91 "Hg15 mi
5:00 PM68 °FBroken clouds.18 mph46%29.91 "Hg15 mi
4:00 PM68 °FPartly sunny.20 mph46%29.91 "Hg15 mi
3:00 PM66 °FMostly cloudy.23 mph49%29.93 "Hg15 mi
2:00 PM64 °FPartly sunny.22 mph52%29.94 "Hg15 mi
1:00 PM63 °FPartly sunny.22 mph59%29.96 "Hg15 mi
12:00 PM63 °FBroken clouds.16 mph59%29.97 "Hg15 mi
11:00 AM63 °FPartly sunny.17 mph59%29.98 "Hg15 mi
10:00 AM61 °FPartly sunny.23 mph59%29.99 "Hg15 mi
9:00 AM59 °FBroken clouds.13 mph63%30.00 "Hg15 mi
8:00 AM57 °FBroken clouds.14 mph67%30.01 "Hg15 mi
7:00 AM55 °FBroken clouds.13 mph72%30.01 "Hg15 mi
6:00 AM54 °FPartly sunny.12 mph72%30.01 "Hg15 mi
5:00 AM52 °FPassing clouds.10 mph77%30.00 "Hg15 mi
4:00 AM52 °FPassing clouds.12 mph77%30.00 "Hg15 mi
3:00 AM54 °FPassing clouds.13 mph77%29.99 "Hg15 mi
2:00 AM54 °FPassing clouds.12 mph77%30.00 "Hg15 mi
1:00 AM55 °FPassing clouds.8 mph72%29.99 "Hg15 mi
12:00 AM57 °FPassing clouds.9 mph67%30.00 "Hg15 mi
11:00 PM
Mon, Jul 25
57 °FPassing clouds.9 mph67%30.00 "Hg15 mi
Weather by CustomWeather, © 2016

See weather overviewHow to use our weather pages